Hourly Weather Roundup
Issued by NWS Central Illinois

Home | Current Version | Previous Version | Text Only | Print | Product List | Glossary On
Versions: 1 2 3 4 5 6 7 8 9 10 11 12 13 14 15 16 17 18 19 20 21 22 23 24 25 26 27 28 29 30 31 32 33 34 35 36 37 38 39 40 41 42 43 44 45 46 47 48 49 50
000
NZUS43 KILX 221510
HWRILX

AREA WEATHER ROUNDUP
NATIONAL WEATHER SERVICE, LINCOLN IL
1000 AM CDT TUE JUL 22 2014


CITY           SKY/WX    TMP DP  RH WIND       PRES   REMARKS
BLOOMINGTON    SUNNY     78  68  71 S14       30.07F HX  80
CHAMPAIGN      SUNNY     79  68  69 SW10      30.09S HX  81
DECATUR        NOT AVBL
FLORA          SUNNY     79  68  67 S3        30.10F HX  81
GALESBURG      CLOUDY    74  70  87 S7G17     30.01F
JACKSONVILLE   MOSUNNY   82  71  71 SW9       30.08R HX  86
LACON          SUNNY     80  69  68 SW10G18   30.02R HX  83
LAWRENCEVILLE  SUNNY     82  71  69 S5        30.10F HAZE    HX  86
LITCHFIELD     SUNNY     78  69  73 SW8       30.08F HX  80
$$


CITY           SKY/WX    TMP DP  RH WIND       PRES   REMARKS
LINCOLN        SUNNY     82  69  66 SW5       30.05R HX  85
MACOMB         TSTM      71  69  95 SW10      30.03F
MATTOON        SUNNY     78  67  68 S9        30.09F HX  80
MT CARMEL AP   SUNNY     82  70  65 CALM      30.10S HX  86
OLNEY-NOBLE AP SUNNY     79  70  73 CALM      30.10F HX  81
PARIS          SUNNY     79  70  74 SW6       30.11R HX  82
PEORIA         MOSUNNY   83  69  62 SW14      30.04R HX  86
PONTIAC        SUNNY     81  72  74 SW14      30.04S HX  84
RANTOUL        SUNNY     80  66  63 S9        30.08F HX  82
ROBINSON       SUNNY     83  71  69 SW5       30.11S HX  87
SPRINGFIELD    SUNNY     81  69  67 SW10      30.07S HX  84
TAYLORVILLE    SUNNY     77  70  78 S9        30.08F
$$

...REGIONAL REPORTS...


CITY           SKY/WX    TMP DP  RH WIND       PRES   REMARKS
CHICAGO O`HARE MOSUNNY   81  64  56 SW12G21   30.00S HX  82
KANKAKEE       SUNNY     80  69  69 S15       30.05S HX  83
MOLINE         CLOUDY    79  70  74 SW9       29.97S HX  82
MOUNT VERNON   SUNNY     81  66  61 SW7       30.11S HX  83
PITTSFIELD     MOSUNNY   78  69  73 SW8       30.08R HX  80
QUINCY         PTSUNNY   75  69  81 CALM      30.07R
ROCKFORD       PTSUNNY   79  69  71 SW15      30.00S HX  81
$$


CITY           SKY/WX    TMP DP  RH WIND       PRES   REMARKS
BURLINGTON     LGT RAIN  74  70  87 S15       29.98F
CEDAR RAPIDS   MOSUNNY   81  72  74 SW15      29.98R HX  85
DES MOINES     PTSUNNY   86  76  71 W6        29.95R HX  96
KIRKSVILLE     MOSUNNY   77  72  84 SW5       30.03R
OTTUMWA        CLOUDY    76  72  87 SW6       30.00R
ST LOUIS       MOSUNNY   83  67  58 SW7       30.09R HX  85
$$


CITY           SKY/WX    TMP DP  RH WIND       PRES   REMARKS
TERRE HAUTE    SUNNY     81  68  64 S7        30.10F HX  84
EVANSVILLE     SUNNY     85  68  56 N3        30.09F HX  88
INDIANAPOLIS   SUNNY     81  66  60 S6        30.10F HX  83
LAFAYETTE      SUNNY     80  68  66 SW7       30.08F HX  83
MADISON        MOSUNNY   82  69  64 SW10G18   29.94R HX  85
MILWAUKEE      PTSUNNY   81  67  62 SW16      29.96F HX  83
$$




USA.gov is the U.S. government's official web portal to all federal, state and local government web resources and services.